Find Starlink 6225

NORAD ID: 57092 Int'l Des: 2023-088 Owner: SPXS Country: US Constellation: starlink operational
LEOCIRCULAR

リアルタイム位置

3D地球を読み込み中...

Starlink 6225について

説明を読み込み中...

次回通過

Passes for default location (London). Set your location on the main map for personalized predictions.

高度履歴

Loading altitude history...

軌道要素

1 57092U 23088AW 26121.78239998 .00002517 00000-0 10348-3 0 9995
2 57092 43.0027 155.9814 0001256 275.9013 84.1695 15.26739344158624
Epoch: May 1, 2026 • Age: 22 hours

現在のステータス

高度 488.7 km
速度 7.63 km/s
衛星直下点 39.27°N, 150.65°E
打ち上げ日 Jun 22, 2023
運用期間 2.8 years
タイプ internet

技術仕様

分類 Payload
質量 305.00 kg
乾燥質量 290.00 kg
総質量 305.00 kg
長さ 0.20 m
直径 2.80 m
スパン 9.00 m
形状 Box + pan
製造者 SPXS
バスタイプ Starlink
フェーズステータス In Orbit
所有者/国 SPXS/US

Most Searched